Regional Weather Roundup
Issued by NWS Upton, NY

Current Version | Previous Version | Text Only | Print | Product List | Glossary Off
Versions: 1 2 3 4 5 6 7 8 9 10 11 12 13 14 15 16 17 18 19 20 21 22 23 24 25 26 27
000 ASUS41 KOKX 051704 RWROKX REGIONAL WEATHER ROUNDUP NATIONAL WEATHER SERVICE NEW YORK NY 100 PM EDT THU MAY 05 2016 NOTE: "FAIR" INDICATES FEW OR NO CLOUDS BELOW 12,000 FEET WITH NO SIGNIFICANT WEATHER AND/OR OBSTRUCTIONS TO VISIBILITY. NYZ071-072-176-178-NJZ106-104-051800- NEW YORK CITY METRO AREA CITY SKY/WX TMP DP RH WIND PRES REMARKS CENTRAL PARK CLOUDY 54 42 64 E8 29.70F LAGUARDIA APRT CLOUDY 54 45 71 NE15 29.68F KENNEDY INTL CLOUDY 53 42 66 NE15 29.69F NEWARK/LIBERTY CLOUDY 54 44 69 N14 29.67F BRNX BOT. GARD N/A 54 43 66 E1 29.70S TETERBORO CLOUDY 56 42 59 NE12G17 29.67F $$ NYZ177-179-078>081-051800- LONG ISLAND NEW YORK CITY SKY/WX TMP DP RH WIND PRES REMARKS FARMINGDALE CLOUDY 52 42 69 NE15G26 29.68F ISLIP CLOUDY 52 42 69 NE21 29.66F SHIRLEY CLOUDY 51 43 74 N12G21 29.67F RIVERHEAD N/A 50 46 87 N12 29.67F WESTHAMPTON CLOUDY 47 43 86 N18G24 29.68F EAST HAMPTON CLOUDY 49 42 76 NE16G26 29.67F MONTAUK POINT NOT AVBL $$ NYZ052-065-067-051800- HUDSON VALLEY CITY SKY/WX TMP DP RH WIND PRES REMARKS WHITE PLAINS CLOUDY 53 43 68 NE14 29.68F NEWBURGH CLOUDY 54 46 76 NE12 29.71F MONTGOMERY CLOUDY 55 45 68 NE14 29.70F POUGHKEEPSIE CLOUDY 57 43 59 N13G23 29.71F ALBANY CLOUDY 55 44 66 N10 29.76F $$ NJZ001-105-106-008-010-013-015-019>022-104-051800- NEW JERSEY CITY SKY/WX TMP DP RH WIND PRES REMARKS NEWARK/LIBERTY CLOUDY 54 44 69 N14 29.67F TETERBORO CLOUDY 56 42 59 NE12G17 29.67F CALDWELL CLOUDY 55 30 38 NE9 29.68F MORRISTOWN CLOUDY 54 45 71 N12G17 29.69F SOMERVILLE CLOUDY 55 44 66 VRB5 29.66F SUSSEX CLOUDY 55 44 66 NE10G24 29.69F ANDOVER N/A 53 43 68 NE8G24 29.68F TRENTON CLOUDY 53 45 74 NE8 29.66F MILLVILLE CLOUDY 51 45 79 N12 29.65F ATLANTIC CITY CLOUDY 51 45 79 NE12G20 29.64F WRIGHTSTOWN CLOUDY 50 46 83 N13 29.64F TOMS RIVER CLOUDY 52 43 71 NE14G20 29.67F BELMAR CLOUDY 51 43 74 NE12 29.67F $$ PAZ047>061-062-071-051800- EASTERN PENNSYLVANIA CITY SKY/WX TMP DP RH WIND PRES REMARKS PHILADELPHIA CLOUDY 56 45 66 NE10 29.66F ALLENTOWN CLOUDY 57 45 64 NE12 29.68F SCRANTON CLOUDY 54 43 66 N8 29.69F $$ CTZ002-004>006-009-010-012-RIZ004-006-007-MAZ004-011-015-051800- SOUTHERN NEW ENGLAND IN CT CITY SKY/WX TMP DP RH WIND PRES REMARKS BRADLEY INTL CLOUDY 53 41 63 NE20G26 29.72F HARTFORD CLOUDY 54 43 66 NE15G24 29.71F DANBURY CLOUDY 52 41 66 NE13G21 29.71F WTRBRY/OXFORD NOT AVBL BRIDGEPORT CLOUDY 54 42 64 NE21G26 29.69F MERIDEN CLOUDY 53 41 63 N8G18 29.70F NEW HAVEN CLOUDY 54 43 66 N17G23 29.68F CHESTER CLOUDY 50 43 76 NE12G23 29.68F GROTON CLOUDY 51 48 89 NE16G26 29.67F WILLIMANTIC CLOUDY 50 42 74 NE16G24 29.72F IN RI CITY SKY/WX TMP DP RH WIND PRES REMARKS PROVIDENCE CLOUDY 48 41 76 NE22G32 29.73S BLOCK ISLAND CLOUDY 47 43 86 NE22G29 29.67F WESTERLY CLOUDY 50 41 71 N10G26 29.68F IN MA CITY SKY/WX TMP DP RH WIND PRES REMARKS BOSTON CLOUDY 46 42 86 NE18 29.77F WORCESTER CLOUDY 44 42 93 NE14G20 29.73F WESTFIELD CLOUDY 51 42 71 N10 29.73F PROVINCETOWN LGT RAIN 44 43 96 NE18G29 29.73F FOG NANTUCKET LGT RAIN 46 45 96 N25G33 29.65S FOG $$ ANZ330-335-338-340-345-350-353-355-051800- COASTAL MARINE OBSERVATIONS STATION/POSITION TIME SKY/WX TEMP WIND PRES VSBY WAVE AIR SEA DIR/SP/G HT/PER (UTC) (F) (DEG/KT/KT) (MB) (MI) (FT/S) NY HARB ENTRANCE 1550 49 50 30/ 16/ 17 1004.9 4/ 7 20S FIRE ISLAND 1550 47 48 40/ 19/ 23 1004.5 7/ 7 GREAT SOUTH BAY 1600 50 53 30/ 16/ 17 N/A 23 SSW MONTAUK P 1650 47 47 30/ 25/ 29 1003.1 7/ 7 15 E BARNEGAT LI 1622 50 N/A 7/ 7 HUDSON CANYON 1550 47 48 1002.3 8/ 7 KINGS POINT 1600 51 53 1005.5 EXECUTION ROCKS NOT AVBL CENTRAL LI SOUND 1600 49 30/ 14/ 17 N/A 2/ 3 EASTERN LI SOUND 1600 49 47 30/ 16/ 21 N/A ROBBINS REEF 1600 51 10/ 13/ 16 1004.7 $$ >>>>>>>>>>>>>>>>>>>>>>>>>>>> KEY <<<<<<<<<<<<<<<<<<<<<<<<<<< > < > SKY/WX - SKY CONDITION/PRESENT WEATHER < > TMP - TEMPERATURE IN FAHRENHEIT < > DP - DEWPOINT IN FAHRENHEIT < > RH - RELATIVE HUMIDITY IN PERCENT < > WIND - DIRECTION AND SPEED IN MPH < > PRES - MEAN SEA LEVEL PRESSURE IN INCHES OF HG < > WCI - WIND CHILL INDEX < > VSB - VISIBILITY IN MILES < > HX - HEAT INDEX < > TC - TEMPERATURE IN CELSIUS < > VRB - VARIABLE WIND DIRECTION < > < >>>>>>>>>>>>>>>>>>>>>>>>>>>> KEY <<<<<<<<<<<<<<<<<<<<<<<<<<<

USA.gov is the U.S. government's official web portal to all federal, state and local government web resources and services.